Location: ??????????
(44.2167°N, 135.5333°E)
Time: 15:21:52
(UTC+00:00)

NOSS 3-3 (A) - Pass Details

Date: 15 June 2025
Orbit: 714 x 1495 km, 63.4° (Epoch: 12 July)

Event Time Altitude Azimuth Distance (km) Brightness Sun altitude
Exits shadow 17:32:16 15° 183° (S) 1,945 5.1 -13.8°
Maximum altitude 17:36:13 44° 117° (ESE) 1,119 4.4 -13.4°
Drops below altitude 10° 17:41:47 10° 47° (NE) 2,610 7.7 -12.8°
Sets 17:44:38 0° 42° (NE) 3,679 9.1 -12.5°
